Year,Month,Day,Hour,Minute,Value (Times are PST for temperature in C)
2017,11,18,00,00,4.20
2017,11,18,00,01,4.20
2017,11,18,00,02,4.20
2017,11,18,00,03,4.20
2017,11,18,00,04,4.20
2017,11,18,00,05,4.20
2017,11,18,00,06,4.20
2017,11,18,00,07,4.30
2017,11,18,00,08,4.30
2017,11,18,00,09,4.30
2017,11,18,00,10,4.30
2017,11,18,00,11,4.30
2017,11,18,00,12,4.30
2017,11,18,00,13,4.30
2017,11,18,00,14,4.30
2017,11,18,00,15,4.40
2017,11,18,00,16,4.40
2017,11,18,00,17,4.40
2017,11,18,00,18,4.40
2017,11,18,00,19,4.40
2017,11,18,00,20,4.40
2017,11,18,00,21,4.40
2017,11,18,00,22,4.50
2017,11,18,00,23,4.50
2017,11,18,00,24,4.50
2017,11,18,00,25,4.50
2017,11,18,00,26,4.40
2017,11,18,00,27,4.40
2017,11,18,00,28,4.50
2017,11,18,00,29,4.50
2017,11,18,00,30,4.40
2017,11,18,00,31,4.40
2017,11,18,00,32,4.50
2017,11,18,00,33,4.50
2017,11,18,00,34,4.50
2017,11,18,00,35,4.50
2017,11,18,00,36,4.60
2017,11,18,00,37,4.60
2017,11,18,00,38,4.60
2017,11,18,00,39,4.60
2017,11,18,00,40,4.60
2017,11,18,00,41,4.60
2017,11,18,00,42,4.60
2017,11,18,00,43,4.60
2017,11,18,00,44,4.60
2017,11,18,00,45,4.60
2017,11,18,00,46,4.60
2017,11,18,00,47,4.70
2017,11,18,00,48,4.70
2017,11,18,00,49,4.70
2017,11,18,00,50,4.70
2017,11,18,00,51,4.80
2017,11,18,00,52,4.80
2017,11,18,00,53,4.80
2017,11,18,00,54,4.80
2017,11,18,00,55,4.80
2017,11,18,00,56,4.80
2017,11,18,00,57,4.80
2017,11,18,00,58,4.70
2017,11,18,00,59,4.60
2017,11,18,01,00,4.60
2017,11,18,01,01,4.60
2017,11,18,01,02,4.60
2017,11,18,01,03,4.60
2017,11,18,01,04,4.50
2017,11,18,01,05,4.50
2017,11,18,01,06,4.60
2017,11,18,01,07,4.60
2017,11,18,01,08,4.60
2017,11,18,01,09,4.60
2017,11,18,01,10,4.60
2017,11,18,01,11,4.70
2017,11,18,01,12,4.70
2017,11,18,01,13,4.60
2017,11,18,01,14,4.70
2017,11,18,01,15,4.70
2017,11,18,01,16,4.70
2017,11,18,01,17,4.70
2017,11,18,01,18,4.60
2017,11,18,01,19,4.60
2017,11,18,01,20,4.70
2017,11,18,01,21,4.70
2017,11,18,01,22,4.70
2017,11,18,01,23,4.70
2017,11,18,01,24,4.80
2017,11,18,01,25,4.80
2017,11,18,01,26,4.90
2017,11,18,01,27,5.00
2017,11,18,01,28,5.00
2017,11,18,01,29,5.10
2017,11,18,01,30,5.10
2017,11,18,01,31,5.10
2017,11,18,01,32,5.10
2017,11,18,01,33,5.10
2017,11,18,01,34,5.10
2017,11,18,01,35,5.10
2017,11,18,01,36,5.10
2017,11,18,01,37,5.10
2017,11,18,01,38,5.00
2017,11,18,01,39,5.00
2017,11,18,01,40,5.00
2017,11,18,01,41,4.90
2017,11,18,01,42,4.90
2017,11,18,01,43,4.90
2017,11,18,01,44,4.90
2017,11,18,01,45,4.90
2017,11,18,01,46,4.90
2017,11,18,01,47,4.90
2017,11,18,01,48,4.90
2017,11,18,01,49,4.90
2017,11,18,01,50,4.90
2017,11,18,01,51,4.90
2017,11,18,01,52,4.80
2017,11,18,01,53,4.80
2017,11,18,01,54,4.80
2017,11,18,01,55,4.80
2017,11,18,01,56,4.80
2017,11,18,01,57,4.80
2017,11,18,01,58,4.80
2017,11,18,01,59,4.80
2017,11,18,02,00,4.80
2017,11,18,02,01,4.80
2017,11,18,02,02,4.90
2017,11,18,02,03,4.90
2017,11,18,02,04,5.00
2017,11,18,02,05,5.00
2017,11,18,02,06,5.10
2017,11,18,02,07,5.10
2017,11,18,02,08,5.10
2017,11,18,02,09,5.20
2017,11,18,02,10,5.20
2017,11,18,02,11,5.20
2017,11,18,02,12,5.20
2017,11,18,02,13,5.30
2017,11,18,02,14,5.30
2017,11,18,02,15,5.30
2017,11,18,02,16,5.30
2017,11,18,02,17,5.40
2017,11,18,02,18,5.40
2017,11,18,02,19,5.40
2017,11,18,02,20,5.40
2017,11,18,02,21,5.40
2017,11,18,02,22,5.40
2017,11,18,02,23,5.40
2017,11,18,02,24,5.40
2017,11,18,02,25,5.30
2017,11,18,02,26,5.30
2017,11,18,02,27,5.30
2017,11,18,02,28,5.40
2017,11,18,02,29,5.40
2017,11,18,02,30,5.40
2017,11,18,02,31,5.40
2017,11,18,02,32,5.50
2017,11,18,02,33,5.50
2017,11,18,02,34,5.60
2017,11,18,02,35,5.60
2017,11,18,02,36,5.60
2017,11,18,02,37,5.60
2017,11,18,02,38,5.60
2017,11,18,02,39,5.70
2017,11,18,02,40,5.70
2017,11,18,02,41,5.70
2017,11,18,02,42,5.70
2017,11,18,02,43,5.70
2017,11,18,02,44,5.70
2017,11,18,02,45,5.70
2017,11,18,02,46,5.70
2017,11,18,02,47,5.70
2017,11,18,02,48,5.70
2017,11,18,02,49,5.70
2017,11,18,02,50,5.80
2017,11,18,02,51,5.80
2017,11,18,02,52,5.80
2017,11,18,02,53,5.80
2017,11,18,02,54,5.80
2017,11,18,02,55,5.70
2017,11,18,02,56,5.70
2017,11,18,02,57,5.70
2017,11,18,02,58,5.70
2017,11,18,02,59,5.80
2017,11,18,03,00,5.80
2017,11,18,03,01,5.80
2017,11,18,03,02,5.80
2017,11,18,03,03,5.80
2017,11,18,03,04,5.80
2017,11,18,03,05,5.80
2017,11,18,03,06,5.80
2017,11,18,03,07,5.80
2017,11,18,03,08,5.80
2017,11,18,03,09,5.80
2017,11,18,03,10,5.80
2017,11,18,03,11,5.90
2017,11,18,03,12,5.90
2017,11,18,03,13,5.90
2017,11,18,03,14,5.90
2017,11,18,03,15,5.90
2017,11,18,03,16,5.90
2017,11,18,03,17,5.90
2017,11,18,03,18,5.90
2017,11,18,03,19,5.90
2017,11,18,03,20,5.90
2017,11,18,03,21,5.90
2017,11,18,03,22,5.90
2017,11,18,03,23,5.90
2017,11,18,03,24,5.90
2017,11,18,03,25,5.90
2017,11,18,03,26,5.90
2017,11,18,03,27,5.90
2017,11,18,03,28,5.90
2017,11,18,03,29,5.90
2017,11,18,03,30,5.80
2017,11,18,03,31,5.80
2017,11,18,03,32,5.80
2017,11,18,03,33,5.80
2017,11,18,03,34,5.80
2017,11,18,03,35,5.80
2017,11,18,03,36,5.80
2017,11,18,03,37,5.80
2017,11,18,03,38,5.80
2017,11,18,03,39,5.80
2017,11,18,03,40,5.80
2017,11,18,03,41,5.80
2017,11,18,03,42,5.80
2017,11,18,03,43,5.80
2017,11,18,03,44,5.80
2017,11,18,03,45,5.80
2017,11,18,03,46,5.80
2017,11,18,03,47,5.80
2017,11,18,03,48,5.80
2017,11,18,03,49,5.80
2017,11,18,03,50,5.80
2017,11,18,03,51,5.80
2017,11,18,03,52,5.80
2017,11,18,03,53,5.80
2017,11,18,03,54,5.80
2017,11,18,03,55,5.80
2017,11,18,03,56,5.80
2017,11,18,03,57,5.80
2017,11,18,03,58,5.80
2017,11,18,03,59,5.80
2017,11,18,04,00,5.80
2017,11,18,04,01,5.80
2017,11,18,04,02,5.80
2017,11,18,04,03,5.80
2017,11,18,04,04,5.80
2017,11,18,04,05,5.80
2017,11,18,04,06,5.80
2017,11,18,04,07,5.80
2017,11,18,04,08,5.80
2017,11,18,04,09,5.90
2017,11,18,04,10,5.90
2017,11,18,04,11,5.90
2017,11,18,04,12,5.90
2017,11,18,04,13,5.90
2017,11,18,04,14,5.90
2017,11,18,04,15,5.90
2017,11,18,04,16,5.90
2017,11,18,04,17,5.90
2017,11,18,04,18,5.90
2017,11,18,04,19,5.90
2017,11,18,04,20,5.90
2017,11,18,04,21,5.90
2017,11,18,04,22,5.90
2017,11,18,04,23,5.90
2017,11,18,04,24,5.90
2017,11,18,04,25,5.90
2017,11,18,04,26,5.90
2017,11,18,04,27,5.90
2017,11,18,04,28,5.90
2017,11,18,04,29,5.90
2017,11,18,04,30,6.00
2017,11,18,04,31,6.00
2017,11,18,04,32,6.00
2017,11,18,04,33,6.10
2017,11,18,04,34,6.10
2017,11,18,04,35,6.10
2017,11,18,04,36,6.10
2017,11,18,04,37,6.10
2017,11,18,04,38,6.10
2017,11,18,04,39,6.20
2017,11,18,04,40,6.20
2017,11,18,04,41,6.20
2017,11,18,04,42,6.20
2017,11,18,04,43,6.20
2017,11,18,04,44,6.20
2017,11,18,04,45,6.20
2017,11,18,04,46,6.20
2017,11,18,04,47,6.20
2017,11,18,04,48,6.20
2017,11,18,04,49,6.20
2017,11,18,04,50,6.20
2017,11,18,04,51,6.20
2017,11,18,04,52,6.20
2017,11,18,04,53,6.20
2017,11,18,04,54,6.20
2017,11,18,04,55,6.20
2017,11,18,04,56,6.20
2017,11,18,04,57,6.20
2017,11,18,04,58,6.20
2017,11,18,04,59,6.20
2017,11,18,05,00,6.20
2017,11,18,05,01,6.20
2017,11,18,05,02,6.20
2017,11,18,05,03,6.20
2017,11,18,05,04,6.20
2017,11,18,05,05,6.20
2017,11,18,05,06,6.20
2017,11,18,05,07,6.20
2017,11,18,05,08,6.20
2017,11,18,05,09,6.20
2017,11,18,05,10,6.20
2017,11,18,05,11,6.20
2017,11,18,05,12,6.20
2017,11,18,05,13,6.10
2017,11,18,05,14,6.10
2017,11,18,05,15,6.10
2017,11,18,05,16,6.10
2017,11,18,05,17,6.00
2017,11,18,05,18,6.00
2017,11,18,05,19,5.90
2017,11,18,05,20,5.90
2017,11,18,05,21,5.90
2017,11,18,05,22,5.90
2017,11,18,05,23,5.80
2017,11,18,05,24,5.80
2017,11,18,05,25,5.80
2017,11,18,05,26,5.80
2017,11,18,05,27,5.80
2017,11,18,05,28,5.80
2017,11,18,05,29,5.80
2017,11,18,05,30,5.70
2017,11,18,05,31,5.70
2017,11,18,05,32,5.80
2017,11,18,05,33,5.80
2017,11,18,05,34,5.80
2017,11,18,05,35,5.80
2017,11,18,05,36,5.80
2017,11,18,05,37,5.80
2017,11,18,05,38,5.80
2017,11,18,05,39,5.80
2017,11,18,05,40,5.80
2017,11,18,05,41,5.70
2017,11,18,05,42,5.70
2017,11,18,05,43,5.70
2017,11,18,05,44,5.70
2017,11,18,05,45,5.70
2017,11,18,05,46,5.70
2017,11,18,05,47,5.70
2017,11,18,05,48,5.70
2017,11,18,05,49,5.70
2017,11,18,05,50,5.70
2017,11,18,05,51,5.70
2017,11,18,05,52,5.70
2017,11,18,05,53,5.70
2017,11,18,05,54,5.80
2017,11,18,05,55,5.80
2017,11,18,05,56,5.80
2017,11,18,05,57,5.80
2017,11,18,05,58,5.90
2017,11,18,05,59,5.90
2017,11,18,06,00,5.90
2017,11,18,06,01,5.90
2017,11,18,06,02,5.90
2017,11,18,06,03,5.90
2017,11,18,06,04,5.90
2017,11,18,06,05,5.90
2017,11,18,06,06,5.90
2017,11,18,06,07,5.90
2017,11,18,06,08,5.90
2017,11,18,06,09,5.90
2017,11,18,06,10,5.90
2017,11,18,06,11,5.90
2017,11,18,06,12,5.90
2017,11,18,06,13,5.90
2017,11,18,06,14,5.90
2017,11,18,06,15,5.90
2017,11,18,06,16,5.90
2017,11,18,06,17,5.90
2017,11,18,06,18,5.90
2017,11,18,06,19,5.90
2017,11,18,06,20,5.90
2017,11,18,06,21,5.90
2017,11,18,06,22,5.90
2017,11,18,06,23,5.90
2017,11,18,06,24,5.90
2017,11,18,06,25,5.90
2017,11,18,06,26,5.90
2017,11,18,06,27,5.90
2017,11,18,06,28,5.90
2017,11,18,06,29,5.90
2017,11,18,06,30,5.90
2017,11,18,06,31,6.00
2017,11,18,06,32,6.00
2017,11,18,06,33,6.00
2017,11,18,06,34,6.00
2017,11,18,06,35,6.00
2017,11,18,06,36,6.10
2017,11,18,06,37,6.10
2017,11,18,06,38,6.10
2017,11,18,06,39,6.10
2017,11,18,06,40,6.10
2017,11,18,06,41,6.10
2017,11,18,06,42,6.10
2017,11,18,06,43,6.10
2017,11,18,06,44,6.10
2017,11,18,06,45,6.10
2017,11,18,06,46,6.10
2017,11,18,06,47,6.10
2017,11,18,06,48,6.10
2017,11,18,06,49,6.10
2017,11,18,06,50,6.10
2017,11,18,06,51,6.20
2017,11,18,06,52,6.20
2017,11,18,06,53,6.20
2017,11,18,06,54,6.20
2017,11,18,06,55,6.20
2017,11,18,06,56,6.20
2017,11,18,06,57,6.20
2017,11,18,06,58,6.20
2017,11,18,06,59,6.20
2017,11,18,07,00,6.20
2017,11,18,07,01,6.20
2017,11,18,07,02,6.10
2017,11,18,07,03,6.10
2017,11,18,07,04,6.10
2017,11,18,07,05,6.10
2017,11,18,07,06,6.10
2017,11,18,07,07,6.10
2017,11,18,07,08,6.10
2017,11,18,07,09,6.10
2017,11,18,07,10,6.10
2017,11,18,07,11,6.10
2017,11,18,07,12,6.10
2017,11,18,07,13,6.10
2017,11,18,07,14,6.10
2017,11,18,07,15,6.10
2017,11,18,07,16,6.10
2017,11,18,07,17,6.10
2017,11,18,07,18,6.10
2017,11,18,07,19,6.00
2017,11,18,07,20,6.00
2017,11,18,07,21,6.00
2017,11,18,07,22,6.00
2017,11,18,07,23,6.00
2017,11,18,07,24,6.00
2017,11,18,07,25,6.00
2017,11,18,07,26,6.00
2017,11,18,07,27,6.00
2017,11,18,07,28,6.00
2017,11,18,07,29,6.00
2017,11,18,07,30,6.00
2017,11,18,07,31,6.00
2017,11,18,07,32,6.00
2017,11,18,07,33,6.00
2017,11,18,07,34,6.10
2017,11,18,07,35,6.10
2017,11,18,07,36,6.10
2017,11,18,07,37,6.10
2017,11,18,07,38,6.10
2017,11,18,07,39,6.10
2017,11,18,07,40,6.10
2017,11,18,07,41,6.10
2017,11,18,07,42,6.10
2017,11,18,07,43,6.10
2017,11,18,07,44,6.10
2017,11,18,07,45,6.10
2017,11,18,07,46,6.20
2017,11,18,07,47,6.20
2017,11,18,07,48,6.20
2017,11,18,07,49,6.20
2017,11,18,07,50,6.20
2017,11,18,07,51,6.20
2017,11,18,07,52,6.20
2017,11,18,07,53,6.20
2017,11,18,07,54,6.20
2017,11,18,07,55,6.20
2017,11,18,07,56,6.20
2017,11,18,07,57,6.20
2017,11,18,07,58,6.20
2017,11,18,07,59,6.20
2017,11,18,08,00,6.20
2017,11,18,08,01,6.20
2017,11,18,08,02,6.20
2017,11,18,08,03,6.20
2017,11,18,08,04,6.20
2017,11,18,08,05,6.20
2017,11,18,08,06,6.10
2017,11,18,08,07,6.20
2017,11,18,08,08,6.20
2017,11,18,08,09,6.20
2017,11,18,08,10,6.20
2017,11,18,08,11,6.20
2017,11,18,08,12,6.20
2017,11,18,08,13,6.20
2017,11,18,08,14,6.20
2017,11,18,08,15,6.20
2017,11,18,08,16,6.20
2017,11,18,08,17,6.20
2017,11,18,08,18,6.20
2017,11,18,08,19,6.20
2017,11,18,08,20,6.20
2017,11,18,08,21,6.20
2017,11,18,08,22,6.20
2017,11,18,08,23,6.20
2017,11,18,08,24,6.20
2017,11,18,08,25,6.20
2017,11,18,08,26,6.20
2017,11,18,08,27,6.30
2017,11,18,08,28,6.30
2017,11,18,08,29,6.30
2017,11,18,08,30,6.30
2017,11,18,08,31,6.30
2017,11,18,08,32,6.30
2017,11,18,08,33,6.30
2017,11,18,08,34,6.30
2017,11,18,08,35,6.30
2017,11,18,08,36,6.30
2017,11,18,08,37,6.30
2017,11,18,08,38,6.30
2017,11,18,08,39,6.30
2017,11,18,08,40,6.30
2017,11,18,08,41,6.30
2017,11,18,08,42,6.40
2017,11,18,08,43,6.40
2017,11,18,08,44,6.40
2017,11,18,08,45,6.40
2017,11,18,08,46,6.40
2017,11,18,08,47,6.40
2017,11,18,08,48,6.40
2017,11,18,08,49,6.40
2017,11,18,08,50,6.50
2017,11,18,08,51,6.50
2017,11,18,08,52,6.50
2017,11,18,08,53,6.50
2017,11,18,08,54,6.50
2017,11,18,08,55,6.50
2017,11,18,08,56,6.50
2017,11,18,08,57,6.60
2017,11,18,08,58,6.60
2017,11,18,08,59,6.60
2017,11,18,09,00,6.60
2017,11,18,09,01,6.60
2017,11,18,09,02,6.60
2017,11,18,09,03,6.60
2017,11,18,09,04,6.60
2017,11,18,09,05,6.70
2017,11,18,09,06,6.70
2017,11,18,09,07,6.70
2017,11,18,09,08,6.70
2017,11,18,09,09,6.70
2017,11,18,09,10,6.70
2017,11,18,09,11,6.70
2017,11,18,09,12,6.70
2017,11,18,09,13,6.70
2017,11,18,09,14,6.70
2017,11,18,09,15,6.70
2017,11,18,09,16,6.70
2017,11,18,09,17,6.70
2017,11,18,09,18,6.70
2017,11,18,09,19,6.70
2017,11,18,09,20,6.70
2017,11,18,09,21,6.70
2017,11,18,09,22,6.70
2017,11,18,09,23,6.70
2017,11,18,09,24,6.70
2017,11,18,09,25,6.70
2017,11,18,09,26,6.70
2017,11,18,09,27,6.70
2017,11,18,09,28,6.70
2017,11,18,09,29,6.70
2017,11,18,09,30,6.80
2017,11,18,09,31,6.80
2017,11,18,09,32,6.80
2017,11,18,09,33,6.80
2017,11,18,09,34,6.80
2017,11,18,09,35,6.80
2017,11,18,09,36,6.90
2017,11,18,09,37,6.90
2017,11,18,09,38,6.90
2017,11,18,09,39,7.00
2017,11,18,09,40,7.10
2017,11,18,09,41,7.10
2017,11,18,09,42,7.20
2017,11,18,09,43,7.20
2017,11,18,09,44,7.30
2017,11,18,09,45,7.30
2017,11,18,09,46,7.40
2017,11,18,09,47,7.50
2017,11,18,09,48,7.50
2017,11,18,09,49,7.60
2017,11,18,09,50,7.70
2017,11,18,09,51,7.70
2017,11,18,09,52,7.70
2017,11,18,09,53,7.80
2017,11,18,09,54,7.80
2017,11,18,09,55,7.80
2017,11,18,09,56,7.80
2017,11,18,09,57,7.80
2017,11,18,09,58,7.80
2017,11,18,09,59,7.80
2017,11,18,10,00,7.80
2017,11,18,10,01,7.80
2017,11,18,10,02,7.80
2017,11,18,10,03,7.90
2017,11,18,10,04,7.90
2017,11,18,10,05,7.90
2017,11,18,10,06,7.90
2017,11,18,10,07,7.90
2017,11,18,10,08,7.90
2017,11,18,10,09,7.90
2017,11,18,10,10,8.00
2017,11,18,10,11,8.00
2017,11,18,10,12,8.10
2017,11,18,10,13,8.10
2017,11,18,10,14,8.20
2017,11,18,10,15,8.20
2017,11,18,10,16,8.30
2017,11,18,10,17,8.40
2017,11,18,10,18,8.50
2017,11,18,10,19,8.50
2017,11,18,10,20,8.60
2017,11,18,10,21,8.60
2017,11,18,10,22,8.60
2017,11,18,10,23,8.60
2017,11,18,10,24,8.70
2017,11,18,10,25,8.80
2017,11,18,10,26,8.80
2017,11,18,10,27,8.80
2017,11,18,10,28,8.80
2017,11,18,10,29,8.90
2017,11,18,10,30,9.00
2017,11,18,10,31,9.00
2017,11,18,10,32,9.10
2017,11,18,10,33,9.20
2017,11,18,10,34,9.20
2017,11,18,10,35,9.30
2017,11,18,10,36,9.40
2017,11,18,10,37,9.40
2017,11,18,10,38,9.40
2017,11,18,10,39,9.50
2017,11,18,10,40,9.60
2017,11,18,10,41,9.60
2017,11,18,10,42,9.70
2017,11,18,10,43,9.80
2017,11,18,10,44,9.90
2017,11,18,10,45,9.90
2017,11,18,10,46,9.90
2017,11,18,10,47,9.90
2017,11,18,10,48,9.90
2017,11,18,10,49,9.90
2017,11,18,10,50,9.90
2017,11,18,10,51,9.90
2017,11,18,10,52,10.00
2017,11,18,10,53,10.00
2017,11,18,10,54,10.10
2017,11,18,10,55,10.10
2017,11,18,10,56,10.20
2017,11,18,10,57,10.20
2017,11,18,10,58,10.20
2017,11,18,10,59,10.30
2017,11,18,11,00,10.30
2017,11,18,11,01,10.30
2017,11,18,11,02,10.30
2017,11,18,11,03,10.30
2017,11,18,11,04,10.30
2017,11,18,11,05,10.30
2017,11,18,11,06,10.30
2017,11,18,11,07,10.40
2017,11,18,11,08,10.30
2017,11,18,11,09,10.40
2017,11,18,11,10,10.40
2017,11,18,11,11,10.40
2017,11,18,11,12,10.40
2017,11,18,11,13,10.50
2017,11,18,11,14,10.50
2017,11,18,11,15,10.60
2017,11,18,11,16,10.70
2017,11,18,11,17,10.80
2017,11,18,11,18,11.00
2017,11,18,11,19,11.20
2017,11,18,11,20,11.20
2017,11,18,11,21,11.30
2017,11,18,11,22,11.30
2017,11,18,11,23,11.40
2017,11,18,11,24,11.50
2017,11,18,11,25,11.50
2017,11,18,11,26,11.60
2017,11,18,11,27,11.60
2017,11,18,11,28,11.60
2017,11,18,11,29,11.60
2017,11,18,11,30,11.70
2017,11,18,11,31,11.70
2017,11,18,11,32,11.70
2017,11,18,11,33,11.80
2017,11,18,11,34,11.80
2017,11,18,11,35,11.80
2017,11,18,11,36,11.70
2017,11,18,11,37,11.70
2017,11,18,11,38,11.70
2017,11,18,11,39,11.60
2017,11,18,11,40,11.60
2017,11,18,11,41,11.60
2017,11,18,11,42,11.50
2017,11,18,11,43,11.50
2017,11,18,11,44,11.50
2017,11,18,11,45,11.40
2017,11,18,11,46,11.30
2017,11,18,11,47,11.20
2017,11,18,11,48,11.10
2017,11,18,11,49,11.10
2017,11,18,11,50,11.10
2017,11,18,11,51,11.10
2017,11,18,11,52,11.20
2017,11,18,11,53,11.20
2017,11,18,11,54,11.10
2017,11,18,11,55,11.10
2017,11,18,11,56,11.00
2017,11,18,11,57,11.00
2017,11,18,11,58,10.90
2017,11,18,11,59,10.80
2017,11,18,12,00,10.80
2017,11,18,12,01,10.70
2017,11,18,12,02,10.70
2017,11,18,12,03,10.70
2017,11,18,12,04,10.70
2017,11,18,12,05,10.70
2017,11,18,12,06,10.80
2017,11,18,12,07,10.80
2017,11,18,12,08,10.80
2017,11,18,12,09,10.80
2017,11,18,12,10,10.80
2017,11,18,12,11,10.80
2017,11,18,12,12,10.80
2017,11,18,12,13,10.80
2017,11,18,12,14,10.80
2017,11,18,12,15,10.90
2017,11,18,12,16,10.90
2017,11,18,12,17,10.90
2017,11,18,12,18,10.80
2017,11,18,12,19,10.80
2017,11,18,12,20,10.80
2017,11,18,12,21,10.80
2017,11,18,12,22,10.80
2017,11,18,12,23,10.90
2017,11,18,12,24,10.90
2017,11,18,12,25,10.90
2017,11,18,12,26,11.00
2017,11,18,12,27,11.10
2017,11,18,12,28,11.10
2017,11,18,12,29,11.20
2017,11,18,12,30,11.20
2017,11,18,12,31,11.20
2017,11,18,12,32,11.30
2017,11,18,12,33,11.30
2017,11,18,12,34,11.30
2017,11,18,12,35,11.30
2017,11,18,12,36,11.30
2017,11,18,12,37,11.30
2017,11,18,12,38,11.30
2017,11,18,12,39,11.40
2017,11,18,12,40,11.40
2017,11,18,12,41,11.50
2017,11,18,12,42,11.60
2017,11,18,12,43,11.60
2017,11,18,12,44,11.70
2017,11,18,12,45,11.80
2017,11,18,12,46,11.90
2017,11,18,12,47,11.90
2017,11,18,12,48,12.00
2017,11,18,12,49,12.10
2017,11,18,12,50,12.10
2017,11,18,12,51,12.20
2017,11,18,12,52,12.30
2017,11,18,12,53,12.30
2017,11,18,12,54,12.30
2017,11,18,12,55,12.30
2017,11,18,12,56,12.30
2017,11,18,12,57,12.30
2017,11,18,12,58,12.40
2017,11,18,12,59,12.40
2017,11,18,13,00,12.50
2017,11,18,13,01,12.60
2017,11,18,13,02,12.60
2017,11,18,13,03,12.70
2017,11,18,13,04,12.70
2017,11,18,13,05,12.70
2017,11,18,13,06,12.60
2017,11,18,13,07,12.50
2017,11,18,13,08,12.40
2017,11,18,13,09,12.40
2017,11,18,13,10,12.40
2017,11,18,13,11,12.40
2017,11,18,13,12,12.40
2017,11,18,13,13,12.30
2017,11,18,13,14,12.30
2017,11,18,13,15,12.30
2017,11,18,13,16,12.20
2017,11,18,13,17,12.20
2017,11,18,13,18,12.20
2017,11,18,13,19,12.10
2017,11,18,13,20,12.10
2017,11,18,13,21,12.10
2017,11,18,13,22,12.00
2017,11,18,13,23,12.00
2017,11,18,13,24,12.00
2017,11,18,13,25,12.00
2017,11,18,13,26,12.00
2017,11,18,13,27,12.00
2017,11,18,13,28,12.10
2017,11,18,13,29,12.10
2017,11,18,13,30,12.20
2017,11,18,13,31,12.20
2017,11,18,13,32,12.20
2017,11,18,13,33,12.20
2017,11,18,13,34,12.20
2017,11,18,13,35,12.20
2017,11,18,13,36,12.30
2017,11,18,13,37,12.40
2017,11,18,13,38,12.40
2017,11,18,13,39,12.40
2017,11,18,13,40,12.40
2017,11,18,13,41,12.40
2017,11,18,13,42,12.40
2017,11,18,13,43,12.40
2017,11,18,13,44,12.40
2017,11,18,13,45,12.30
2017,11,18,13,46,12.30
2017,11,18,13,47,12.30
2017,11,18,13,48,12.30
2017,11,18,13,49,12.30
2017,11,18,13,50,12.30
2017,11,18,13,51,12.30
2017,11,18,13,52,12.30
2017,11,18,13,53,12.20
2017,11,18,13,54,12.20
2017,11,18,13,55,12.20
2017,11,18,13,56,12.10
2017,11,18,13,57,12.10
2017,11,18,13,58,12.00
2017,11,18,13,59,11.90
2017,11,18,14,00,11.90
2017,11,18,14,01,11.80
2017,11,18,14,02,11.80
2017,11,18,14,03,11.80
2017,11,18,14,04,11.70
2017,11,18,14,05,11.70
2017,11,18,14,06,11.70
2017,11,18,14,07,11.70
2017,11,18,14,08,11.60
2017,11,18,14,09,11.60
2017,11,18,14,10,11.50
2017,11,18,14,11,11.50
2017,11,18,14,12,11.40
2017,11,18,14,13,11.40
2017,11,18,14,14,11.40
2017,11,18,14,15,11.30
2017,11,18,14,16,11.30
2017,11,18,14,17,11.30
2017,11,18,14,18,11.30
2017,11,18,14,19,11.30
2017,11,18,14,20,11.30
2017,11,18,14,21,11.30
2017,11,18,14,22,11.30
2017,11,18,14,23,11.40
2017,11,18,14,24,11.40
2017,11,18,14,25,11.40
2017,11,18,14,26,11.40
2017,11,18,14,27,11.40
2017,11,18,14,28,11.40
2017,11,18,14,29,11.40
2017,11,18,14,30,11.40
2017,11,18,14,31,11.40
2017,11,18,14,32,11.40
2017,11,18,14,33,11.40
2017,11,18,14,34,11.40
2017,11,18,14,35,11.40
2017,11,18,14,36,11.40
2017,11,18,14,37,11.30
2017,11,18,14,38,11.30
2017,11,18,14,39,11.30
2017,11,18,14,40,11.30
2017,11,18,14,41,11.30
2017,11,18,14,42,11.20
2017,11,18,14,43,11.20
2017,11,18,14,44,11.20
2017,11,18,14,45,11.20
2017,11,18,14,46,11.20
2017,11,18,14,47,11.10
2017,11,18,14,48,11.10
2017,11,18,14,49,11.10
2017,11,18,14,50,11.10
2017,11,18,14,51,11.10
2017,11,18,14,52,11.10
2017,11,18,14,53,11.10
2017,11,18,14,54,11.10
2017,11,18,14,55,11.10
2017,11,18,14,56,11.10
2017,11,18,14,57,11.10
2017,11,18,14,58,11.10
2017,11,18,14,59,11.00
2017,11,18,15,00,11.00
2017,11,18,15,01,11.00
2017,11,18,15,02,11.00
2017,11,18,15,03,11.00
2017,11,18,15,04,11.00
2017,11,18,15,05,11.00
2017,11,18,15,06,10.90
2017,11,18,15,07,10.90
2017,11,18,15,08,10.90
2017,11,18,15,09,10.90
2017,11,18,15,10,10.90
2017,11,18,15,11,10.90
2017,11,18,15,12,10.90
2017,11,18,15,13,10.90
2017,11,18,15,14,10.90
2017,11,18,15,15,10.80
2017,11,18,15,16,10.80
2017,11,18,15,17,10.80
2017,11,18,15,18,10.80
2017,11,18,15,19,10.80
2017,11,18,15,20,10.80
2017,11,18,15,21,10.80
2017,11,18,15,22,10.70
2017,11,18,15,23,10.70
2017,11,18,15,24,10.70
2017,11,18,15,25,10.70
2017,11,18,15,26,10.60
2017,11,18,15,27,10.60
2017,11,18,15,28,10.60
2017,11,18,15,29,10.60
2017,11,18,15,30,10.60
2017,11,18,15,31,10.50
2017,11,18,15,32,10.50
2017,11,18,15,33,10.50
2017,11,18,15,34,10.50
2017,11,18,15,35,10.50
2017,11,18,15,36,10.40
2017,11,18,15,37,10.40
2017,11,18,15,38,10.40
2017,11,18,15,39,10.40
2017,11,18,15,40,10.40
2017,11,18,15,41,10.40
2017,11,18,15,42,10.30
2017,11,18,15,43,10.30
2017,11,18,15,44,10.30
2017,11,18,15,45,10.30
2017,11,18,15,46,10.30
2017,11,18,15,47,10.30
2017,11,18,15,48,10.30
2017,11,18,15,49,10.30
2017,11,18,15,50,10.20
2017,11,18,15,51,10.20
2017,11,18,15,52,10.20
2017,11,18,15,53,10.20
2017,11,18,15,54,10.20
2017,11,18,15,55,10.20
2017,11,18,15,56,10.20
2017,11,18,15,57,10.20
2017,11,18,15,58,10.20
2017,11,18,15,59,10.20
2017,11,18,16,00,10.20
2017,11,18,16,01,10.10
2017,11,18,16,02,10.10
2017,11,18,16,03,10.10
2017,11,18,16,04,10.00
2017,11,18,16,05,10.00
2017,11,18,16,06,10.00
2017,11,18,16,07,9.90
2017,11,18,16,08,9.90
2017,11,18,16,09,9.90
2017,11,18,16,10,9.90
2017,11,18,16,11,9.80
2017,11,18,16,12,9.80
2017,11,18,16,13,9.80
2017,11,18,16,14,9.80
2017,11,18,16,15,9.80
2017,11,18,16,16,9.80
2017,11,18,16,17,9.80
2017,11,18,16,18,9.70
2017,11,18,16,19,9.70
2017,11,18,16,20,9.70
2017,11,18,16,21,9.70
2017,11,18,16,22,9.70
2017,11,18,16,23,9.70
2017,11,18,16,24,9.70
2017,11,18,16,25,9.70
2017,11,18,16,26,9.70
2017,11,18,16,27,9.70
2017,11,18,16,28,9.70
2017,11,18,16,29,9.60
2017,11,18,16,30,9.60
2017,11,18,16,31,9.60
2017,11,18,16,32,9.60
2017,11,18,16,33,9.60
2017,11,18,16,34,9.60
2017,11,18,16,35,9.60
2017,11,18,16,36,9.50
2017,11,18,16,37,9.50
2017,11,18,16,38,9.40
2017,11,18,16,39,9.40
2017,11,18,16,40,9.40
2017,11,18,16,41,9.40
2017,11,18,16,42,9.40
2017,11,18,16,43,9.30
2017,11,18,16,44,9.30
2017,11,18,16,45,9.30
2017,11,18,16,46,9.30
2017,11,18,16,47,9.40
2017,11,18,16,48,9.40
2017,11,18,16,49,9.40
2017,11,18,16,50,9.40
2017,11,18,16,51,9.40
2017,11,18,16,52,9.40
2017,11,18,16,53,9.30
2017,11,18,16,54,9.30
2017,11,18,16,55,9.30
2017,11,18,16,56,9.30
2017,11,18,16,57,9.30
2017,11,18,16,58,9.40
2017,11,18,16,59,9.40
2017,11,18,17,00,9.40
2017,11,18,17,01,9.40
2017,11,18,17,02,9.40
2017,11,18,17,03,9.40
2017,11,18,17,04,9.40
2017,11,18,17,05,9.50
2017,11,18,17,06,9.50
2017,11,18,17,07,9.50
2017,11,18,17,08,9.60
2017,11,18,17,09,9.60
2017,11,18,17,10,9.50
2017,11,18,17,11,9.50
2017,11,18,17,12,9.50
2017,11,18,17,13,9.50
2017,11,18,17,14,9.50
2017,11,18,17,15,9.50
2017,11,18,17,16,9.50
2017,11,18,17,17,9.60
2017,11,18,17,18,9.60
2017,11,18,17,19,9.60
2017,11,18,17,20,9.60
2017,11,18,17,21,9.60
2017,11,18,17,22,9.60
2017,11,18,17,23,9.60
2017,11,18,17,24,9.60
2017,11,18,17,25,9.60
2017,11,18,17,26,9.60
2017,11,18,17,27,9.60
2017,11,18,17,28,9.60
2017,11,18,17,29,9.60
2017,11,18,17,30,9.60
2017,11,18,17,31,9.70
2017,11,18,17,32,9.70
2017,11,18,17,33,9.70
2017,11,18,17,34,9.70
2017,11,18,17,35,9.70
2017,11,18,17,36,9.80
2017,11,18,17,37,9.80
2017,11,18,17,38,9.80
2017,11,18,17,39,9.80
2017,11,18,17,40,9.80
2017,11,18,17,41,9.80
2017,11,18,17,42,9.80
2017,11,18,17,43,9.80
2017,11,18,17,44,9.80
2017,11,18,17,45,9.80
2017,11,18,17,46,9.80
2017,11,18,17,47,9.80
2017,11,18,17,48,9.90
2017,11,18,17,49,9.80
2017,11,18,17,50,9.80
2017,11,18,17,51,9.80
2017,11,18,17,52,9.80